[[{"header":{"parameterUnit":"m.s-1","parameterCategory":1,"la1":30.2991,"la2":30.254,"lo1":-89.0895,"lo2":-89.0444,"dy":0.0017,"dx":0.0017,"nx":28,"ny":28,"refTime":"2024-10-04T09:00:00:Z","depth":0,"parameterNumber":2,"parameterNumberName":"U-component_of_WINDS"},"data":[0,0,0,0,0,0,0,0,0,0,0,0,0,0,0,0,0,0,0,0,0,0,0,0,0,0,0,0,0,0,0,0,0,0,0,0,0,0,0,0,0,0,0,0,0,0,0,0,0,0,0,0,0,0,0,0,0,0,-4.8107,-4.8108,0,-4.8181,-4.8182,-4.8183,-4.8084,-4.808,-4.8076,-4.8073,-4.8149,-4.8154,-4.816,0,0,0,0,0,0,0,0,0,0,0,0,0,-4.788,-4.7885,-4.8107,-4.8108,-4.8109,-4.8181,-4.8182,-4.8183,-4.8084,-4.808,-4.8076,-4.8071,-4.8148,-4.8154,-4.816,0,0,0,0,0,0,0,0,0,0,0,0,0,-4.7969,-4.7886,-4.8107,-4.8068,-4.8066,-4.8181,-4.8182,-4.8183,-4.8085,-4.808,-4.8074,-4.8069,-4.8145,-4.8153,-4.8161,-4.8318,0,0,-4.8186,-4.8189,0,0,0,0,0,0,0,0,-4.7964,-4.7977,-4.8073,-4.8071,-4.8068,-4.8118,-4.813,-4.8229,-4.8086,-4.8078,-4.8073,-4.8067,-4.8143,-4.8151,-4.8177,-4.8322,-4.8325,-4.8186,-4.8191,-4.8195,-4.8197,0,0,0,0,0,0,0,-4.7958,-4.7974,-4.8136,-4.8075,-4.8072,-4.8047,-4.8054,-4.8148,-4.814,-4.8078,-4.8071,-4.8081,-4.8141,-4.8169,-4.8178,-4.8326,-4.8186,-4.8193,-4.8198,-4.8201,-4.8604,-4.861,0,0,0,0,0,0,-4.7956,-4.7969,-4.8134,-4.8139,-4.8002,-4.8056,-4.8063,-4.8107,-4.8138,-4.8138,-4.8086,-4.8076,-4.8158,-4.8168,-4.818,-4.8367,-4.8195,-4.8202,-4.8207,-4.8599,-4.8606,-4.8612,0,0,0,0,0,0,-4.7952,-4.7972,-4.8131,-4.8052,-4.807,-4.8065,-4.8116,-4.8112,-4.814,-4.8144,-4.8142,-4.8116,-4.8154,-4.8169,-4.8285,-4.8368,-4.8206,-4.8213,-4.8592,-4.8601,-4.8609,-4.8742,0,0,0,0,0,0,-4.7946,-4.7971,-4.8031,-4.8054,-4.8075,-4.8235,-4.8121,-4.8117,-4.8154,-4.8142,-4.8172,-4.8172,-4.8151,-4.8273,-4.8293,-4.8376,-4.8219,-4.8584,-4.8596,-4.8606,-4.873,-4.8754,-4.8774,0,0,0,0,0,-4.7938,-4.8065,-4.8034,-4.8055,-4.8149,-4.824,-4.8252,-4.8225,-4.8161,-4.8221,-4.8224,-4.8171,-4.8356,-4.8286,-4.8307,-4.8394,-4.8579,-4.8592,-4.8605,-4.872,-4.8749,-4.8774,0,0,0,0,0,0,-4.8051,-4.8067,-4.8033,-4.8171,-4.8205,-4.8223,-4.8298,-4.8257,-4.8309,-4.8297,-4.8261,-4.8269,-4.8393,-4.8405,-4.8327,-4.8548,-4.8457,-4.8475,-4.8536,-4.8564,-4.8586,-4.8581,-4.8226,0,0,0,0,0,-4.8092,-4.8164,-4.8174,-4.8295,-4.8314,-4.8303,-4.8341,-4.8318,-4.8351,-4.8365,-4.8376,-4.8411,-4.8477,-4.8521,-4.8581,-4.873,-4.8736,-4.8801,-4.8823,-4.8841,-4.8858,-4.8939,-4.8968,-4.8656,-4.8655,-4.8655,0,0,-4.8178,-4.8195,-4.8243,-4.8318,-4.8342,-4.8418,-4.8316,-4.84,-4.8456,-4.8378,-4.8489,-4.8498,-4.8534,-4.8668,-4.8727,-4.8682,-4.8945,-4.8858,-4.8873,-4.888,-4.8956,-4.8985,-4.9012,-4.8665,-4.8663,-4.8662,0,0,-4.8372,-4.8393,-4.8496,-4.8522,-4.8558,-4.855,-4.8576,-4.86,-4.8603,-4.8714,-4.8657,-4.8723,-4.8836,-4.8865,-4.8894,-4.9101,-4.9055,-4.9121,-4.9239,-4.9318,-4.9343,-4.9364,-4.9439,-4.9467,-4.9137,-4.9138,-4.9138,0,-4.8474,-4.8586,-4.8555,-4.8644,-4.8679,-4.8611,-4.8716,-4.8742,-4.8797,-4.8823,-4.8771,-4.8913,-4.8932,-4.9072,-4.9123,-4.9148,-4.9176,-4.9118,-4.9342,-4.9363,-4.9383,-4.9454,-4.9482,-4.9146,-4.9145,-4.9144,-4.9143,0,-4.871,-4.8789,-4.8868,-4.8923,-4.8967,-4.9064,-4.9047,-4.9095,-4.9068,-4.9066,-4.9179,-4.92,-4.9264,-4.9295,-4.9269,-4.9433,-4.9403,-4.9347,-4.9254,-4.9421,-4.9488,-4.9514,-4.9157,-4.9154,-4.9152,-4.915,0,0,-4.898,-4.9016,-4.9046,-4.907,-4.9106,-4.9166,-4.9259,-4.9322,-4.9365,-4.9405,-4.9483,-4.9581,-4.9529,-4.9563,-4.9539,-4.9609,-4.9773,-4.9544,-4.9544,-4.9587,-4.9955,-4.9999,-5.0031,-4.9742,-4.9747,-4.9751,-4.9953,0,-4.9176,-4.9338,-4.9312,-4.9469,-4.9542,-4.9479,-4.956,-4.9591,-4.9592,-4.9653,-4.9653,-4.9724,-4.965,-4.967,-4.9736,-4.9739,-4.9846,-4.9724,-4.9815,-4.9819,-4.981,-5.0065,-5.0111,-5.03,-4.9978,-4.9983,-4.9986,0,-4.9427,-4.9476,-4.9641,-4.9666,-4.9695,-4.9769,-4.9825,-4.9884,-4.9918,-4.9914,-4.9952,-4.9915,-5.0009,-4.9914,-5.0044,-4.9961,-4.9996,-5.0004,-5.001,-5.0019,-4.9914,-5.0082,-5.036,-5.0389,-5.0026,-5.0023,-5.002,0,-4.9609,-4.9716,-4.9829,-4.9852,-4.9883,-4.9937,-4.9952,-4.998,-5.002,-5.0069,-5.0094,-5.0153,-5.0186,-5.0233,-5.0214,-5.0146,-5.0348,-5.0251,-5.0348,-5.0349,-5.0394,-5.0392,-5.0683,-5.0415,-5.0415,-5.0414,-5.0413,0,-4.9831,-4.9935,-4.9911,-4.9981,-5.0095,-5.0064,-5.0178,-5.0186,-5.0212,-5.0282,-5.023,-5.0297,-5.0267,-5.0332,-5.0318,-5.0428,-5.0443,-5.0442,-5.0438,-5.0448,-5.0449,-5.0472,-5.0459,-5.0422,-5.042,-5.0418,-5.0417,0,-5.0055,-5.0043,-5.0162,-5.0182,-5.0189,-5.0273,-5.029,-5.0355,-5.0351,-5.0441,-5.046,-5.0454,-5.0528,-5.0513,-5.0595,-5.0585,-5.0724,-5.0702,-5.0713,-5.0708,-5.0806,-5.0798,-5.1125,-5.1166,-5.087,-5.0872,-5.0875,0,-5.0199,-5.0277,-5.0305,-5.0349,-5.0368,-5.0439,-5.0479,-5.0451,-5.0496,-5.054,-5.0601,-5.067,-5.0724,-5.0845,-5.0849,-5.0911,-5.0891,-5.1001,-5.09,-5.0908,-5.0895,-5.0891,-5.0899,-5.1022,-5.1025,-5.1028,-5.103,0,-5.0456,-5.0446,-5.0506,-5.0565,-5.0615,-5.066,-5.0699,-5.0738,-5.0713,-5.0766,-5.0841,-5.0883,-5.0966,-5.1036,-5.1094,-5.111,-5.1067,-5.1062,-5.1088,-5.11,-5.1104,-5.1105,-5.0769,-5.1055,-5.1052,-5.105,-5.1049,-5.1048,-5.0645,-5.0712,-5.0743,-5.0812,-5.0838,-5.0877,-5.094,-5.0944,-5.1006,-5.1072,-5.1051,-5.1137,-5.1169,-5.1242,-5.1265,-5.1332,-5.1291,-5.1328,-5.1338,-5.1348,-5.1361,-5.1092,-5.1342,-5.1342,-5.1341,-5.134,-5.134,0,-5.09,-5.0917,-5.0981,-5.1038,-5.1093,-5.1047,-5.1088,-5.1137,-5.1214,-5.1247,-5.1301,-5.1388,-5.1456,-5.1465,-5.1529,-5.1581,-5.1563,-5.1599,-5.1595,-5.16,-5.1393,-5.1365,-5.1612,-5.1612,-5.1612,-5.1612,-5.1612,-5.1612,-5.104,-5.1151,-5.1145,-5.127,-5.1285,-5.1369,-5.1397,-5.1433,-5.1459,-5.1559,-5.1615,-5.162,-5.1644,-5.1709,-5.1769,-5.177,-5.1797,-5.1841,-5.1834,-5.1641,-5.1614,-5.1589,-5.1562,-5.1846,-5.1847,-5.2035,-5.2037,-5.2039]},{"header":{"parameterUnit":"m.s-1","parameterCategory":1,"la1":30.2991,"la2":30.254,"lo1":-89.0895,"lo2":-89.0444,"dy":0.0017,"dx":0.0017,"nx":28,"ny":28,"refTime":"2024-10-04T09:00:00:Z","depth":0,"parameterNumber":3,"parameterNumberName":"V-component_of_WINDS"},"data":[0,0,0,0,0,0,0,0,0,0,0,0,0,0,0,0,0,0,0,0,0,0,0,0,0,0,0,0,0,0,0,0,0,0,0,0,0,0,0,0,0,0,0,0,0,0,0,0,0,0,0,0,0,0,0,0,0,0,-3.781,-3.781,0,-3.7822,-3.7822,-3.7822,-3.7776,-3.7774,-3.7773,-3.7772,-3.7783,-3.7785,-3.7786,0,0,0,0,0,0,0,0,0,0,0,0,0,-3.7745,-3.7747,-3.781,-3.781,-3.781,-3.7822,-3.7822,-3.7822,-3.7776,-3.7774,-3.7773,-3.7771,-3.7783,-3.7784,-3.7786,0,0,0,0,0,0,0,0,0,0,0,0,0,-3.7767,-3.7747,-3.781,-3.7789,-3.7787,-3.7822,-3.7822,-3.7822,-3.7776,-3.7774,-3.7772,-3.777,-3.7782,-3.7784,-3.7787,-3.7842,0,0,-3.7794,-3.7795,0,0,0,0,0,0,0,0,-3.7766,-3.7769,-3.7791,-3.779,-3.7788,-3.7795,-3.7803,-3.7829,-3.7777,-3.778,-3.7772,-3.7769,-3.7789,-3.779,-3.7797,-3.7843,-3.7843,-3.7794,-3.7796,-3.7797,-3.7797,0,0,0,0,0,0,0,-3.7764,-3.7769,-3.7814,-3.7792,-3.779,-3.7778,-3.7779,-3.7808,-3.7796,-3.778,-3.7776,-3.7778,-3.7787,-3.7795,-3.7797,-3.7843,-3.7794,-3.7796,-3.7798,-3.7799,-3.7933,-3.7935,0,0,0,0,0,0,-3.7766,-3.7768,-3.7814,-3.7815,-3.7772,-3.7781,-3.7781,-3.7795,-3.7795,-3.7793,-3.778,-3.7776,-3.7792,-3.7794,-3.7797,-3.7861,-3.7797,-3.7799,-3.78,-3.7931,-3.7934,-3.7936,0,0,0,0,0,0,-3.7765,-3.777,-3.7814,-3.779,-3.7795,-3.7784,-3.7799,-3.7796,-3.7804,-3.7796,-3.7793,-3.779,-3.779,-3.7794,-3.7831,-3.7861,-3.78,-3.7802,-3.7929,-3.7932,-3.7935,-3.799,0,0,0,0,0,0,-3.7763,-3.777,-3.7792,-3.7791,-3.7796,-3.7848,-3.7801,-3.7798,-3.7808,-3.7803,-3.7804,-3.7803,-3.7789,-3.7828,-3.7833,-3.7863,-3.7804,-3.7926,-3.793,-3.7934,-3.7985,-3.7995,-3.8003,0,0,0,0,0,-3.7761,-3.7807,-3.7793,-3.7799,-3.7823,-3.785,-3.7853,-3.7836,-3.7811,-3.7832,-3.7826,-3.7803,-3.7857,-3.7832,-3.7838,-3.7869,-3.7924,-3.7929,-3.7934,-3.7982,-3.7993,-3.8002,0,0,0,0,0,0,-3.7812,-3.7807,-3.7791,-3.7839,-3.7845,-3.7842,-3.7868,-3.7849,-3.7862,-3.7857,-3.7836,-3.7836,-3.7877,-3.7876,-3.7849,-3.7921,-3.7886,-3.7892,-3.792,-3.7931,-3.7939,-3.7938,-3.7806,0,0,0,0,0,-3.7829,-3.7852,-3.7845,-3.7888,-3.7892,-3.788,-3.7891,-3.7877,-3.7883,-3.7885,-3.7882,-3.7888,-3.7906,-3.7919,-3.7935,-3.7985,-3.7984,-3.8009,-3.8018,-3.8025,-3.803,-3.8055,-3.8066,-3.7952,-3.7952,-3.7952,0,0,-3.7864,-3.7864,-3.788,-3.7898,-3.7901,-3.7924,-3.7882,-3.7909,-3.7925,-3.7889,-3.7923,-3.7922,-3.7927,-3.797,-3.7989,-3.7971,-3.8061,-3.8031,-3.8037,-3.8038,-3.8061,-3.8072,-3.8082,-3.7955,-3.7955,-3.7954,0,0,-3.794,-3.7943,-3.7977,-3.7981,-3.7986,-3.7977,-3.7986,-3.7985,-3.7982,-3.8016,-3.7989,-3.8008,-3.804,-3.8045,-3.8051,-3.8126,-3.8104,-3.8132,-3.8177,-3.8201,-3.821,-3.8218,-3.8243,-3.8253,-3.8138,-3.8138,-3.8138,0,-3.7983,-3.8016,-3.7998,-3.8025,-3.8034,-3.8002,-3.8036,-3.804,-3.8051,-3.8057,-3.8037,-3.8075,-3.8076,-3.8119,-3.8137,-3.8144,-3.8152,-3.8131,-3.821,-3.8218,-3.8225,-3.8249,-3.8259,-3.8141,-3.8141,-3.814,-3.814,0,-3.8068,-3.8092,-3.8119,-3.8129,-3.8141,-3.8172,-3.8157,-3.8171,-3.8156,-3.8149,-3.8183,-3.8183,-3.8198,-3.8208,-3.8194,-3.8249,-3.8237,-3.8214,-3.8178,-3.8239,-3.8261,-3.8271,-3.8146,-3.8144,-3.8143,-3.8143,0,0,-3.8177,-3.8175,-3.8185,-3.8189,-3.8191,-3.8209,-3.8238,-3.8252,-3.8263,-3.8271,-3.8294,-3.8321,-3.8299,-3.8307,-3.8293,-3.8314,-3.8372,-3.8288,-3.8288,-3.8303,-3.8431,-3.8447,-3.8458,-3.8358,-3.8359,-3.8361,-3.843,0,-3.825,-3.8299,-3.8282,-3.8332,-3.8353,-3.8322,-3.8347,-3.835,-3.8345,-3.8361,-3.8354,-3.8373,-3.8343,-3.8347,-3.8367,-3.8361,-3.8397,-3.8356,-3.8378,-3.8379,-3.8377,-3.847,-3.8488,-3.8553,-3.8438,-3.844,-3.8441,0,-3.8342,-3.8353,-3.8404,-3.8401,-3.8409,-3.8432,-3.8443,-3.8459,-3.8462,-3.8456,-3.8463,-3.8444,-3.8472,-3.8436,-3.8472,-3.8444,-3.8452,-3.845,-3.8452,-3.8453,-3.8413,-3.8472,-3.8574,-3.8583,-3.8455,-3.8454,-3.8453,0,-3.8415,-3.8442,-3.8476,-3.848,-3.8478,-3.8494,-3.8494,-3.8495,-3.8504,-3.8513,-3.8519,-3.8531,-3.8538,-3.8548,-3.8533,-3.8508,-3.8571,-3.8534,-3.8566,-3.8566,-3.858,-3.8579,-3.8683,-3.8587,-3.8587,-3.8587,-3.8587,0,-3.8498,-3.853,-3.8508,-3.8529,-3.8564,-3.8544,-3.8579,-3.8575,-3.8576,-3.8595,-3.8569,-3.8587,-3.8566,-3.8583,-3.8571,-3.8602,-3.8606,-3.8601,-3.8597,-3.8603,-3.8603,-3.8607,-3.8602,-3.8589,-3.8589,-3.8588,-3.8588,0,-3.8585,-3.8572,-3.8606,-3.86,-3.86,-3.8626,-3.8621,-3.8639,-3.8631,-3.8655,-3.866,-3.8646,-3.8664,-3.865,-3.8667,-3.8659,-3.87,-3.869,-3.8699,-3.8696,-3.8728,-3.8725,-3.8837,-3.885,-3.8747,-3.8748,-3.8749,0,-3.8638,-3.8662,-3.8659,-3.8669,-3.867,-3.8688,-3.8697,-3.8677,-3.8687,-3.8692,-3.871,-3.8725,-3.8736,-3.8765,-3.8757,-3.8769,-3.8759,-3.8798,-3.8761,-3.8765,-3.8758,-3.8757,-3.8758,-3.8805,-3.8806,-3.8807,-3.8808,0,-3.8734,-3.8725,-3.8739,-3.875,-3.8761,-3.8768,-3.8774,-3.8784,-3.8764,-3.8777,-3.8794,-3.8802,-3.8819,-3.8834,-3.8844,-3.8843,-3.8822,-3.882,-3.8827,-3.8833,-3.8836,-3.8834,-3.8718,-3.8817,-3.8816,-3.8816,-3.8815,-3.8815,-3.8805,-3.8824,-3.8824,-3.8839,-3.8841,-3.8847,-3.8863,-3.8856,-3.887,-3.8882,-3.887,-3.889,-3.8891,-3.8902,-3.8903,-3.8919,-3.8903,-3.8914,-3.8917,-3.892,-3.8924,-3.8835,-3.8921,-3.892,-3.892,-3.892,-3.892,0,-3.8898,-3.8896,-3.891,-3.8918,-3.893,-3.8909,-3.8913,-3.8924,-3.8943,-3.8945,-3.8956,-3.8975,-3.8989,-3.8982,-3.8993,-3.9007,-3.8998,-3.9011,-3.9009,-3.9009,-3.8938,-3.893,-3.9018,-3.9018,-3.9018,-3.9018,-3.9018,-3.9018,-3.8948,-3.8978,-3.897,-3.9,-3.8998,-3.9017,-3.9022,-3.9026,-3.9028,-3.905,-3.9061,-3.9056,-3.9054,-3.9065,-3.9077,-3.9074,-3.9079,-3.9096,-3.909,-3.9024,-3.9014,-3.9005,-3.8997,-3.9097,-3.9098,-3.9159,-3.9159,-3.916]}]]